Location: Bun Machan
(52.1403°N, 7.3744°W)
Time: 08:37:56
(UTC+00:00)

NOSS 2-1 (E) - Pass Details

Date: 14 July 2020
Orbit: 446 x 1757 km, 63.3° (Epoch: 01 August)

Event Time Altitude Azimuth Distance (km) Brightness Sun altitude
Rises 01:18:11 0° 313° (NW) 2,984 7.5 -15.6°
Reaches altitude 10° 01:20:11 10° 311° (NW) 2,206 6.8 -15.6°
Maximum altitude 01:25:13 71° 228° (SW) 945 4.3 -15.4°
Drops below altitude 10° 01:32:17 10° 146° (SSE) 3,067 6.7 -15.2°
Enters shadow 01:34:25 - 145° (SE) 3,847 7.2 -15.1°
